Notices

What's New in latest Release from April 7th, 2021:

- Updated Glossary, including Speed of Maximum Gust, and Total Hourly Precipitation

- Updated national and regional climate services offices contacts and prices information

- Addition of station inventory lists for 1981-2010, 1971-2000, and 1961-1990 Normals.

If you haven't already, please take our survey and provide feedback about our website: https://eccc.sondage-survey.ca/f/LanguageSelection.aspx?s=442ca660-fcf1-47c0-95a9-59707d6fd709

Hourly Data Report for January 01, 2005

SHERBROOKE A
QUEBEC

45°26'00.000" N
71°41'00.000" W
241.40 m
7028124
71610
YSC

Download Data

Hourly Data (January 2005)
Hourly Data Report for January 1, 2005
TIME
LST
Temp Definition
°C
Dew Point Definition
°C
Rel Hum Definition
%
Precip. Amount Definition
mm

Wind Dir Definition
10's deg

Wind Spd Definition
km/h
Visibility Definition
km
Stn Press Definition
kPa
Hmdx Definition


Wind Chill Definition


Weather Definition


00:00 6.5 3.6 82   20 19 15.0 98.13      
01:00 6.1 3.9 86   22 13 8.0 98.11     Rain
02:00 6.9 3.8 81   22 20 15.0 98.10      
03:00 4.4 2.4 87   27 28 15.0 98.27     Rain
04:00 4.1 1.3 82   25 19 15.0 98.30     Rain
05:00 3.9 -0.6 72   26 26 15.0 98.41      
06:00 3.1 -1.3 73   26 20 15.0 98.60     Rain
07:00 2.7 -1.3 75   26 22 15.0 98.74      
08:00 2.5 -1.9 73   25 17 24.1 98.87     Mostly Cloudy
09:00 2.4 -1.9 73   27 26 24.1 98.97     Mostly Cloudy
10:00 2.1 -2.2 73   28 24 24.1 99.12     Snow Showers
11:00 1.5 -2.8 73   30 32 19.3 99.22     Snow Showers
12:00 0.0 -4.9 70   32 28 24.1 99.33   -6 Snow Showers
13:00 -1.1 -7.0 64   30 30 19.3 99.47   -8 Mainly Clear
14:00 -1.2 -8.2 59   30 32 24.1 99.63   -8 Mainly Clear
15:00 -2.0 -10.7 51   30 26 24.1 99.85   -9 Mainly Clear
16:00 -2.9 -10.9 54   30 17 24.1 100.04   -8 Clear
17:00 -3.9 -12.9 50   31 15 24.1 100.21   -9 Clear
18:00 -5.2 -14.0 50   31 15 15.0 100.31   -11  
19:00 -6.6 -14.6 53   32 13 15.0 100.49   -12  
20:00 -8.1 -16.7 50   33 20 15.0 100.61   -15  
21:00 -9.5 -17.7 51   32 20 15.0 100.69   -17  
22:00 -11.0 -18.2 55   1 11 15.0 100.74   -17  
23:00 -12.0 -17.5 64     0 15.0 100.84      

Notes on Data Quality.

Legend

  • E = Estimated
  • M = Missing
  • NA = Not Available*
  • [empty] = Indicates an unobserved value
Date modified: